Weather History for Darwin Airport, Northern Territory

Change the Weather History Date:

Monday, November 4, 2013

  Actual Average Record
Temperature  
Mean Temperature 86 °F -  
Max Temperature 95 °F 92 °F - ()
Min Temperature 76 °F 78 °F - ()
Cooling Degree Days 20    
Growing Degree Days 36 (Base 50)    
Moisture  
Dew Point 72 °F    
Average Humidity 62    
Maximum Humidity 83    
Minimum Humidity 32    
Precipitation  
Precipitation 2.83 in 0.19 in - ()
Sea Level Pressure  
Sea Level Pressure 29.83 in    
Wind  
Wind Speed 9 mph ()    
Max Wind Speed 17 mph    
Max Gust Speed -    
Visibility 8.6 miles    
Events Rain    
T = Trace of Precipitation, MM = Missing Value Source: Averaged Metar Reports

Daily Weather History Graph

Daily Weather History Graph

Search for Another Location

Airport:

Trip Planner

Search our weather history database for the weather conditions in past years. The results will help you decide how hot, cold, wet, or windy it might be!

Date:

Astronomy

Nov. 04, 2013 Rise Set
Actual Time 6:12 AM ACST 6:47 PM ACST
Civil Twilight 5:50 AM ACST 7:09 PM ACST
Nautical Twilight 5:24 AM ACST 7:35 PM ACST
Astronomical Twilight 4:58 AM ACST 8:01 PM ACST
Moon 6:34 AM ACST (11/4) 7:33 PM ACST (11/4)
Length of Visible Light 13h 19m
Length of Day
12h 34m
New Moon, 0% of the Moon is Illuminated
Nov 4
New Moon
Nov 10
First Quarter
Nov 18
Full
Nov 26
Last Quarter
Dec 3
New

Hourly Weather History & Observations

Time (ACST) Temp. Heat Index Dew Point Humidity Pressure Visibility Wind Dir Wind Speed Gust Speed Precip Events Conditions
12:00 AM 84 °F - 74 °F 64% 29.85 in 19 mi NNW 8.1 mph - -   Partly Cloudy
12:00 AM 84.2 °F 90.9 °F 73.4 °F 70% 29.86 in 6.2 mi NNW 8.1 mph - N/A   Mostly Cloudy
12:30 AM 83 °F - 74 °F 68% 29.86 in - North 8.1 mph - -  
12:30 AM 82.4 °F 88.2 °F 73.4 °F 74% 29.86 in 6.2 mi North 8.1 mph - N/A   Mostly Cloudy
1:00 AM 82.4 °F 88.2 °F 73.4 °F 74% 29.86 in - North 5.8 mph - N/A   Clear
1:30 AM 80.6 °F 85.4 °F 73.4 °F 79% 29.83 in - NNE 6.9 mph - N/A   Clear
2:00 AM 80.6 °F 85.4 °F 73.4 °F 79% 29.83 in - North 5.8 mph - N/A   Clear
2:30 AM 80.6 °F 85.4 °F 73.4 °F 79% 29.83 in 6.2 mi NNE 8.1 mph - N/A   Partly Cloudy
3:00 AM 80 °F - 74 °F 76% 29.83 in 19 mi NE 8.1 mph - -   Scattered Clouds
3:00 AM 80.6 °F 85.4 °F 73.4 °F 79% 29.83 in 6.2 mi NE 8.1 mph - N/A   Partly Cloudy
3:30 AM 81 °F - 74 °F 74% 29.83 in - NE 9.2 mph - -  
3:30 AM 80.6 °F 85.4 °F 73.4 °F 79% 29.83 in 6.2 mi NE 9.2 mph - N/A   Partly Cloudy
4:00 AM 78.8 °F - 69.8 °F 74% 29.83 in - ENE 15.0 mph - N/A   Clear
4:30 AM 78.8 °F - 69.8 °F 74% 29.83 in - ENE 5.8 mph - N/A   Clear
5:00 AM 77.0 °F - 69.8 °F 78% 29.83 in - NE 5.8 mph - N/A   Clear
5:30 AM 77.0 °F - 71.6 °F 83% 29.86 in 6.2 mi East 5.8 mph - N/A   Partly Cloudy
6:00 AM 77 °F - 72 °F 79% 29.86 in 19 mi ENE 6.9 mph - -   Partly Cloudy
6:00 AM 77.0 °F - 71.6 °F 83% 29.86 in 6.2 mi ENE 6.9 mph - N/A   Scattered Clouds
6:30 AM 77 °F - 72 °F 79% 29.87 in - East 5.8 mph - -  
6:30 AM 77.0 °F - 71.6 °F 83% 29.86 in 6.2 mi East 5.8 mph - N/A   Scattered Clouds
7:00 AM 80.6 °F 85.4 °F 73.4 °F 79% 29.86 in 6.2 mi East 5.8 mph - N/A   Scattered Clouds
7:30 AM 82.4 °F 88.2 °F 73.4 °F 74% 29.89 in 6.2 mi ENE 5.8 mph - N/A   Scattered Clouds
8:00 AM 84.2 °F 92.3 °F 75.2 °F 74% 29.89 in 6.2 mi ENE 6.9 mph - N/A   Partly Cloudy
8:30 AM 86.0 °F 95.1 °F 75.2 °F 70% 29.89 in 6.2 mi East 6.9 mph - N/A   Partly Cloudy
9:00 AM 87 °F - 73 °F 56% 29.89 in 19 mi ENE 6.9 mph - -   Partly Cloudy
9:00 AM 87.8 °F 95.6 °F 73.4 °F 62% 29.89 in 6.2 mi ENE 6.9 mph - N/A   Partly Cloudy
9:30 AM 88 °F - 74 °F 54% 29.89 in - NE 8.1 mph - -  
9:30 AM 87.8 °F 95.6 °F 73.4 °F 62% 29.89 in 6.2 mi NE 8.1 mph - N/A   Partly Cloudy
10:00 AM 89.6 °F 98.2 °F 73.4 °F 59% 29.89 in 6.2 mi NNE 8.1 mph - N/A   Partly Cloudy
10:30 AM 89.6 °F 96.2 °F 71.6 °F 55% 29.89 in 6.2 mi NE 9.2 mph - N/A   Partly Cloudy
11:00 AM 91.4 °F 98.4 °F 71.6 °F 52% 29.86 in 6.2 mi ENE 15.0 mph - N/A   Partly Cloudy
11:30 AM 91.4 °F 96.8 °F 69.8 °F 49% 29.86 in 6.2 mi NE 11.5 mph - N/A   Partly Cloudy
12:00 PM 93 °F - 71 °F 40% 29.85 in 19 mi NNE 9.2 mph - -   Partly Cloudy
12:00 PM 93.2 °F 100.5 °F 71.6 °F 49% 29.86 in 6.2 mi NNE 9.2 mph - N/A   Partly Cloudy
12:30 PM 93 °F - 72 °F 42% 29.84 in - North 12.7 mph - -  
12:30 PM 93.2 °F 102.4 °F 73.4 °F 52% 29.83 in 6.2 mi North 12.7 mph - N/A   Scattered Clouds
1:00 PM 91.4 °F 100.1 °F 73.4 °F 55% 29.83 in 6.2 mi North 17.3 mph - N/A   Scattered Clouds
1:30 PM 91.4 °F 102.5 °F 75.2 °F 59% 29.80 in 6.2 mi NNW 17.3 mph - N/A   Scattered Clouds
2:00 PM 91.4 °F 98.4 °F 71.6 °F 52% 29.80 in 6.2 mi NNW 17.3 mph - N/A   Scattered Clouds
2:30 PM 95.0 °F 98.5 °F 66.2 °F 39% 29.80 in 6.2 mi NNW 17.3 mph - N/A   Partly Cloudy
3:00 PM 93 °F - 69 °F 36% 29.78 in 19 mi North 16.1 mph - -   Partly Cloudy
3:00 PM 93.2 °F 98.8 °F 69.8 °F 46% 29.77 in 6.2 mi North 16.1 mph - N/A   Mostly Cloudy
3:30 PM 93 °F - 66 °F 32% 29.78 in - North 11.5 mph - -  
3:30 PM 93.2 °F 96.2 °F 66.2 °F 41% 29.77 in - North 11.5 mph - N/A   Clear
4:00 PM 93.2 °F 96.2 °F 66.2 °F 41% 29.77 in - North 17.3 mph - N/A   Clear
4:30 PM 91.4 °F 94.0 °F 66.2 °F 43% 29.74 in - NNE 12.7 mph - N/A   Clear
5:00 PM 91.4 °F 93.2 °F 64.4 °F 41% 29.74 in - North 15.0 mph - N/A   Clear
5:30 PM 91.4 °F 93.2 °F 64.4 °F 41% 29.74 in - NNE 17.3 mph - N/A   Clear
6:00 PM 90 °F - 66 °F 36% 29.76 in 19 mi NNE 11.5 mph - -   Partly Cloudy
6:00 PM 89.6 °F 92.2 °F 66.2 °F 46% 29.74 in - NNE 11.5 mph - N/A   Clear
6:30 PM 89 °F - 69 °F 41% 29.76 in - NNE 11.5 mph - -  
6:30 PM 87.8 °F 91.4 °F 68.0 °F 52% 29.74 in - NNE 11.5 mph - N/A   Clear
7:00 PM 87.8 °F 92.6 °F 69.8 °F 55% 29.74 in 6.2 mi North 16.1 mph - N/A   Mostly Cloudy
7:30 PM 86.0 °F 93.4 °F 73.4 °F 66% 29.77 in 6.2 mi NNW 15.0 mph - N/A   Mostly Cloudy
8:00 PM 86.0 °F 95.1 °F 75.2 °F 70% 29.77 in 6.2 mi NW 16.1 mph - N/A   Mostly Cloudy
8:30 PM 86.0 °F 95.1 °F 75.2 °F 70% 29.80 in 6.2 mi WNW 16.1 mph - N/A   Mostly Cloudy
9:00 PM 85 °F - 75 °F 65% 29.83 in 19 mi WNW 13.8 mph - -   Scattered Clouds
9:00 PM 84.2 °F 92.3 °F 75.2 °F 74% 29.83 in 6.2 mi WNW 13.8 mph - N/A   Mostly Cloudy
9:30 PM 85 °F - 74 °F 63% 29.84 in - WNW 13.8 mph - -  
9:30 PM 86.0 °F 95.1 °F 75.2 °F 70% 29.83 in 6.2 mi WNW 13.8 mph - N/A   Mostly Cloudy
10:00 PM 86.0 °F 93.4 °F 73.4 °F 66% 29.86 in 6.2 mi WNW 11.5 mph - N/A   Mostly Cloudy
10:30 PM 86.0 °F 93.4 °F 73.4 °F 66% 29.86 in 6.2 mi WNW 11.5 mph - N/A   Mostly Cloudy
11:00 PM 84.2 °F 94.1 °F 77.0 °F 79% 29.86 in 6.2 mi WNW 10.4 mph - N/A   Mostly Cloudy
11:30 PM 82.4 °F 89.5 °F 75.2 °F 79% 29.86 in 6.2 mi WNW 13.8 mph - N/A Rain Light Rain Showers